Location: Dąbrówka
(52.2799°N, 15.8070°E)
Time: 01:58:05
(UTC+01:00)

ISS - Pass Details

Date: 01 February 2019
Orbit: 403 x 411 km, 51.6° (Epoch: 22 February)

Event Time Altitude Azimuth Distance (km) Brightness Sun altitude
Rises 18:54:49 0° 276° (W) 2,338 1.6 -20.1°
Reaches altitude 10° 18:56:54 10° 274° (W) 1,478 0.2 -20.5°
Enters shadow 18:59:59 68° 227° (SW) 448 -3.6 -20.9°
